Flag for U.S.A. Weather past 2 weeks in New Salem, North Dakota, U.S.A.

Now
16 °F

Passing clouds.


Feels Like: 10 °F
Forecast: -3 / 14 °F
Wind: 3 mph from Southwest

Location: Bismarck Municipal Airport

Current Time: Dec 27, 2014 at 9:47:57 PM

Latest Report: Dec 27, 2014 at 8:52 PM


Visibility: 10 mi

Pressure: 30.14 "Hg

Humidity: 87%

Dew point: 13 °F

Location of New SalemLocation

Historic Weather in New Salem — Graph

°F

New Salem temperature yesterday

Maximum temperature yesterday: 25 °F (at 12:52 AM)
Minimum temperature yesterday: -1 °F (at 10:52 PM)
Average temperature yesterday: 13 °F

Past Weeks' High & Low Weather Summary

 TemperatureHumidityPressure
High45 °F (Dec 13, 2:52 PM)100% (Dec 14, 5:52 AM)30.46 "Hg (Dec 14, 5:52 AM)
Low-1 °F (Dec 26, 10:52 PM)66% (Dec 27, 1:52 PM)29.44 "Hg (Dec 22, 2:02 AM)
Average24 °F86%30.00 "Hg
* Reported Dec 12 7:52 PM — Dec 27 7:52 PM, New Salem, Weather by CustomWeather, © 2014

Note: Actual official high and low records may vary slightly from our data, if they occured in-between our weather recording intervals... More about our weather records

Advertising

New Salem weather history for previous 24 hours

 ConditionsComfort  
Time TempWeatherWind HumidityBarometerVisibility
7:52 PM
Dec 27
15 °FClear.No wind87%30.13 "Hg10 mi
6:52 PM19 °FClear.3 mph85%30.12 "Hg10 mi
5:52 PM22 °FClear.7 mph78%30.11 "Hg10 mi
4:52 PM26 °FSunny.12 mph71%30.10 "Hg10 mi
3:52 PM28 °FScattered clouds.13 mph66%30.08 "Hg10 mi
2:52 PM30 °FOvercast.13 mph66%30.07 "Hg10 mi
1:52 PM29 °FOvercast.8 mph66%30.08 "Hg10 mi
12:52 PM27 °FOvercast.9 mph72%30.11 "Hg10 mi
11:52 AM25 °FOvercast.7 mph72%30.15 "Hg10 mi
10:52 AM23 °FSunny.6 mph74%30.19 "Hg10 mi
9:52 AM14 °FSunny.No wind92%30.20 "Hg10 mi
8:52 AM9 °FSunny.No wind88%30.20 "Hg10 mi
7:52 AM11 °FOvercast.No wind88%30.20 "Hg10 mi
6:52 AM8 °FOvercast.No wind87%30.21 "Hg10 mi
5:52 AM7 °FOvercast.3 mph87%30.21 "Hg10 mi
4:52 AM2 °FPassing clouds.6 mph88%30.22 "Hg9 mi
3:52 AM5 °FOvercast.5 mph87%30.23 "Hg9 mi
2:52 AM0 °FPassing clouds.3 mph87%30.26 "Hg8 mi
1:52 AM2 °FOvercast.3 mph88%30.27 "Hg9 mi
1:00 AM2 °FMostly cloudy.No wind88%30.18 "Hg7 mi
11:52 PM
Dec 26
-1 °FIce fog.No wind82%30.30 "Hg6 mi
10:52 PM-1 °FIce fog.No wind82%30.31 "Hg5 mi
9:52 PM2 °FClear.No wind88%30.30 "Hg9 mi
Weather by CustomWeather, © 2014

See weather overviewHow to use our weather pages